Regional Weather Roundup
Issued by NWS

Home | Current Version | Previous Version | Text Only | Print | Product List | Glossary Off
Versions: 1 2 3 4 5 6 7 8 9 10 11 12 13 14 15 16 17 18 19 20 21 22 23 24 25 26 27 28 29 30 31 32 33 34 35 36 37 38 39 40 41 42 43 44 45 46 47 48 49 50

000
ASUS45 KBOU 280007
RWRCO

WEATHER ROUNDUP FOR COLORADO
NATIONAL WEATHER SERVICE DENVER/BOULDER CO
600 PM MDT SUN JUL 27 2014

NOTE: "FAIR" INDICATES FEW OR NO CLOUDS BELOW 12000 FEET WITH NO
SIGNIFICANT WEATHER AND/OR OBSTRUCTIONS TO VISIBILITY.

COZ001>005-013-030-031-280100-
...NORTHWEST COLORADO...

CITY           SKY/WX    TMP DP  RH WIND       PRES   REMARKS
CRAIG          MOSUNNY   80  38  22 VRB3      30.28F
HAYDEN         MOSUNNY   84  34  16 CALM      30.31F
MEEKER         MOSUNNY   86  33  15 NE8       30.29F
MOUNT WERNER   NOT AVBL
STEAMBOAT SPGS MOSUNNY   82  40  22 W8        30.34S
WALDEN         MOSUNNY   73  36  25 NW10      30.44S
$$

COZ006>008-011-280100-
...WEST CENTRAL VALLEYS...

CITY           SKY/WX    TMP DP  RH WIND       PRES   REMARKS
GRAND JUNCTION CLOUDY    92  48  22 S28G35    30.12R
MONTROSE       CLOUDY    79  53  40 N10       30.29R
EAGLE          MOSUNNY   84  39  20 W5        30.31F
RIFLE          MOSUNNY   93  38  14 NW8       30.18F
DELTA          CLOUDY    77  57  48 NE10      30.24R
NUCLA          CLOUDY    75  50  41 E15       30.32S
$$

COZ017>023-064>068-280100-
...SOUTHWEST COLORADO...

CITY           SKY/WX    TMP DP  RH WIND       PRES   REMARKS
DURANGO        HVY RAIN  65  57  75 E15G23    30.34R
CORTEZ         MOSUNNY   91  46  21 N12       30.20S
PAGOSA SPRINGS TSTM      62  54  74 NE9       30.48S
TELLURIDE      PTSUNNY   68  46  45 W10       30.53S
WOLF CREEK PAS NOT AVBL
$$

COZ009-010-012-014-032>034-037-058>063-280100-
...CENTRAL COLORADO...

CITY           SKY/WX    TMP DP  RH WIND       PRES   REMARKS
ASPEN          CLOUDY    72  44  36 SE16G32   30.42R
BUENA VISTA    CLOUDY    62  55  78 E9        30.54R
COPPER MTN     RAIN      59  41  51 SE10G17   30.79S
BERTHOUD PASS  CLOUDY    45  32  61 E22       30.85S THUNDER
COTTONWOOD PAS CLOUDY    61  50  67 CALM      30.66R
GUNNISON       CLOUDY    70  45  40 SW10      30.47S
KREMMLING      MOSUNNY   81  27  13 NW7       30.39R
LEADVILLE      CLOUDY    58  49  72 S8        30.62R
MONARCH PASS   FOG       46  45  93 E20       30.90S THUNDER VSB<1/4
SALIDA         CLOUDY   N/A N/A N/A NW3       30.58R
SUNLIGHT       PTSUNNY   64  43  45 CALM      30.68F THUNDER
WILKERSON PASS NOT AVBL
$$

COZ069>075-280100-
...SAN LUIS VALLEY/SANGRE DE CRISTO MOUNTAINS...

CITY           SKY/WX    TMP DP  RH WIND       PRES   REMARKS
ALAMOSA        CLOUDY    67  54  63 NE13      30.44R
LA VETA PASS   CLOUDY    59  50  72 E9        30.67S THUNDER
SAGUACHE       CLOUDY    72  43  35 NE7       30.48R
$$

COZ035-036-038>040-280100-
...NORTHERN COLORADO FRONT RANGE...

CITY           SKY/WX    TMP DP  RH WIND       PRES   REMARKS
DENVER INTL AP CLOUDY    80  53  39 S10       30.32R
DMNS CITY PARK   N/A     76  58  54 W6        30.32S
AURORA         PTSUNNY   72  57  60 S13       30.36R
FRONT RANGE AP CLOUDY    79  55  44 S12G17    30.35R
ERIE MUNI ARPT CLOUDY    80  58  45 CALM      30.30S
BOULDER MUN AP CLOUDY    81  55  41 W3        30.31S
CENTENNIAL     CLOUDY    74  57  55 SE9       30.37R THUNDER
BROOMFIELD     PTSUNNY   77  57  50 SW5       30.34S
FORT COLLINS   PTSUNNY   81  55  41 NE6       30.29S
LONGMONT       PTSUNNY   82  60  47 N6        30.32R
$$

COZ041-046-047-076>085-087-088-280100-
...PIKES PEAK/PALMER DIVIDE AND SOUTHERN FOOTHILLS...

CITY           SKY/WX    TMP DP  RH WIND       PRES   REMARKS
COLO. SPRINGS  CLOUDY    77  56  48 S10       30.38F
A. F. ACADEMY  CLOUDY    74  56  51 S10       30.40F
ELLICOTT       CLOUDY    73  57  57 SE20G26   30.38R
FALCON         CLOUDY    73  56  55 S9        30.44F
FORT CARSON    CLOUDY    78  58  49 S8        30.35F
LIMON          PTSUNNY   79  54  41 SE20      30.33S
MONUMENT HILL  CLOUDY    70  54  56 SE8       30.44S
TRINIDAD       CLOUDY    70  60  70 NE9G17    30.35R
$$

COZ042>045-048>051-090-091-280100-
...NORTHEAST COLORADO...

CITY           SKY/WX    TMP DP  RH WIND       PRES   REMARKS
GREELEY ARPT   PTSUNNY   82  54  36 E13G18    30.27S
AKRON          MOSUNNY   84  45  25 SE14      30.29S
BURLINGTON     SUNNY     83  43  24 SE10      30.29R
WRAY             N/A     89  40  18 E8        30.25S
STERLING       SUNNY     88  52  29 SE9       30.25R
HOLYOKE        SUNNY     86  45  23 E6        30.27F
FORT MORGAN    SUNNY     87  48  26 SE17      30.28R
$$

COZ086-089-092>099-280100-
...SOUTHEAST COLORADO...

CITY           SKY/WX    TMP DP  RH WIND       PRES   REMARKS
PUEBLO         CLOUDY    84  59  42 E8        30.26S
LA JUNTA       CLOUDY    85  63  47 E17       30.24R
LAMAR          MOSUNNY   83  61  47 E16       30.21S
SPRINGFIELD      N/A     80  62  54 E17       30.26R
$$


USA.gov is the U.S. government's official web portal to all federal, state and local government web resources and services.